| time (UTC) | temp F | wind direction | speed knots | gust knots | rain 1hr in | rain 24hr in | rain mn in | humidity % | barometer mb |
| 20260507010106 | 52 | 266 | 0.0 | 1.7 | 0.00 | 0.00 | 0.00 | 87 | 1022.2 |
| 20260507005553 | 52 | 0 | 0.0 | 0.0 | 0.00 | 0.00 | 0.00 | 87 | 1022.1 |
| 20260507004015 | 51 | 0 | 0.0 | 0.0 | 0.00 | 0.00 | 0.00 | 87 | 1022.3 |
| 20260507003501 | 52 | 0 | 0.0 | 3.5 | 0.00 | 0.00 | 0.00 | 86 | 1022.3 |
| 20260507002949 | 51 | 0 | 0.0 | 3.5 | 0.00 | 0.00 | 0.00 | 86 | 1022.3 |
| 20260507002435 | 51 | 261 | 0.0 | 3.5 | 0.00 | 0.00 | 0.00 | 86 | 1022.2 |
| 20260507001922 | 51 | 0 | 0.0 | 0.0 | 0.00 | 0.00 | 0.00 | 87 | 1022.2 |
| 20260507001409 | 52 | 0 | 0.0 | 0.0 | 0.00 | 0.00 | 0.00 | 86 | 1022.3 |
| 20260507000856 | 52 | 0 | 0.0 | 0.0 | 0.00 | 0.00 | 0.00 | 86 | 1022.2 |
| 20260507000343 | 51 | 0 | 0.0 | 3.5 | 0.00 | 0.00 | 0.00 | 86 | 1022.3 |
| 20260506235830 | 51 | 0 | 0.0 | 3.5 | 0.00 | 0.00 | 0.00 | 86 | 1022.4 |
| 20260506235317 | 52 | 0 | 0.0 | 3.5 | 0.00 | 0.00 | 0.00 | 86 | 1022.4 |
| 20260506234804 | 51 | 0 | 0.0 | 1.7 | 0.00 | 0.00 | 0.00 | 86 | 1022.3 |
| 20260506234251 | 52 | 0 | 0.0 | 1.7 | 0.00 | 0.00 | 0.00 | 86 | 1022.4 |
| 20260506233738 | 52 | 246 | 0.0 | 1.7 | 0.00 | 0.00 | 0.00 | 86 | 1022.5 |
| 20260506233225 | 52 | 0 | 0.0 | 6.1 | 0.00 | 0.00 | 0.00 | 86 | 1022.5 |
| 20260506232712 | 52 | 0 | 0.0 | 6.1 | 0.00 | 0.00 | 0.00 | 86 | 1022.4 |
| 20260506232159 | 52 | 291 | 4.3 | 6.1 | 0.00 | 0.00 | 0.00 | 85 | 1022.5 |
| 20260506231646 | 52 | 306 | 0.0 | 6.1 | 0.00 | 0.00 | 0.00 | 86 | 1022.5 |
| 20260506231133 | 51 | 280 | 3.5 | 6.1 | 0.00 | 0.00 | 0.00 | 85 | 1022.5 |
| 20260506230107 | 52 | 298 | 5.2 | 6.1 | 0.00 | 0.00 | 0.00 | 85 | 1022.6 |
| 20260506225554 | 52 | 299 | 0.9 | 6.1 | 0.00 | 0.00 | 0.00 | 85 | 1022.6 |
| 20260506225041 | 52 | 289 | 4.3 | 6.1 | 0.00 | 0.00 | 0.00 | 85 | 1022.6 |
| 20260506224528 | 52 | 284 | 5.2 | 6.1 | 0.00 | 0.00 | 0.00 | 85 | 1022.6 |
| 20260506224015 | 52 | 296 | 4.3 | 6.1 | 0.00 | 0.00 | 0.00 | 85 | 1022.7 |
| 20260506223502 | 52 | 291 | 4.3 | 7.0 | 0.00 | 0.00 | 0.00 | 85 | 1022.7 |
| 20260506222949 | 52 | 282 | 4.3 | 7.0 | 0.00 | 0.00 | 0.00 | 85 | 1022.8 |
| 20260506222436 | 52 | 309 | 4.3 | 7.0 | 0.00 | 0.00 | 0.00 | 85 | 1022.7 |
| 20260506221923 | 53 | 308 | 5.2 | 7.0 | 0.00 | 0.00 | 0.00 | 85 | 1022.7 |
| 20260506221410 | 53 | 312 | 5.2 | 6.1 | 0.00 | 0.00 | 0.00 | 85 | 1022.7 |
| 20260506220857 | 52 | 285 | 3.5 | 7.0 | 0.00 | 0.00 | 0.00 | 85 | 1022.8 |
| 20260506220344 | 53 | 295 | 2.6 | 7.0 | 0.00 | 0.00 | 0.00 | 85 | 1022.8 |
| 20260506215318 | 53 | 261 | 1.7 | 7.0 | 0.00 | 0.00 | 0.00 | 85 | 1022.7 |
| 20260506214805 | 53 | 273 | 0.0 | 7.0 | 0.00 | 0.00 | 0.00 | 85 | 1022.6 |
| 20260506214251 | 53 | 305 | 2.6 | 7.0 | 0.00 | 0.00 | 0.00 | 85 | 1022.7 |
| 20260506213739 | 52 | 0 | 0.0 | 6.1 | 0.00 | 0.00 | 0.00 | 86 | 1022.7 |
| 20260506213225 | 52 | 266 | 0.0 | 6.1 | 0.00 | 0.00 | 0.00 | 86 | 1022.7 |
| 20260506212713 | 53 | 278 | 3.5 | 6.1 | 0.00 | 0.00 | 0.00 | 86 | 1022.7 |
| 20260506212200 | 53 | 291 | 2.6 | 5.2 | 0.00 | 0.00 | 0.00 | 86 | 1022.7 |
| 20260506211648 | 53 | 291 | 2.6 | 6.1 | 0.00 | 0.00 | 0.00 | 86 | 1022.6 |
| 20260506211133 | 53 | 278 | 0.0 | 6.1 | 0.00 | 0.00 | 0.00 | 86 | 1022.7 |
| 20260506210621 | 53 | 322 | 3.5 | 6.1 | 0.00 | 0.00 | 0.00 | 86 | 1022.6 |
| 20260506210108 | 53 | 284 | 0.0 | 5.2 | 0.00 | 0.00 | 0.00 | 86 | 1022.6 |
| 20260506205555 | 53 | 295 | 4.3 | 5.2 | 0.00 | 0.00 | 0.00 | 86 | 1022.6 |
| 20260506205041 | 52 | 0 | 0.0 | 5.2 | 0.00 | 0.00 | 0.00 | 86 | 1022.6 |
| 20260506204528 | 52 | 253 | 1.7 | 5.2 | 0.00 | 0.00 | 0.00 | 86 | 1022.6 |
| 20260506204015 | 52 | 264 | 0.9 | 7.0 | 0.00 | 0.00 | 0.00 | 87 | 1022.6 |
| 20260506203503 | 52 | 0 | 0.0 | 7.0 | 0.00 | 0.00 | 0.00 | 86 | 1022.6 |
| 20260506202949 | 52 | 252 | 0.9 | 7.0 | 0.00 | 0.00 | 0.00 | 87 | 1022.5 |
| 20260506201924 | 52 | 250 | 1.7 | 6.1 | 0.00 | 0.00 | 0.00 | 87 | 1022.4 |
| 20260506201410 | 52 | 273 | 3.5 | 6.1 | 0.00 | 0.00 | 0.00 | 87 | 1022.4 |
| 20260506200857 | 52 | 0 | 0.0 | 5.2 | 0.00 | 0.00 | 0.00 | 87 | 1022.5 |
| 20260506200345 | 52 | 0 | 1.7 | 1.7 | 0.00 | 0.00 | 0.00 | 87 | 1022.6 |
| 20260506195831 | 52 | 319 | 3.5 | 7.0 | 0.00 | 0.00 | 0.00 | 87 | 1022.6 |
| 20260506195319 | 52 | 245 | 5.2 | 7.0 | 0.00 | 0.00 | 0.00 | 87 | 1022.6 |
| 20260506194805 | 52 | 299 | 2.6 | 7.0 | 0.00 | 0.00 | 0.00 | 87 | 1022.4 |
| 20260506194252 | 52 | 306 | 3.5 | 6.1 | 0.00 | 0.00 | 0.00 | 86 | 1022.6 |
| 20260506193740 | 52 | 302 | 0.9 | 6.1 | 0.00 | 0.00 | 0.00 | 86 | 1022.5 |
| 20260506193226 | 52 | 295 | 2.6 | 6.1 | 0.00 | 0.00 | 0.00 | 87 | 1022.5 |
| 20260506192714 | 52 | 267 | 0.0 | 6.1 | 0.00 | 0.00 | 0.00 | 87 | 1022.5 |
| 20260506192200 | 52 | 284 | 0.9 | 6.1 | 0.00 | 0.00 | 0.00 | 87 | 1022.5 |
| 20260506191648 | 52 | 268 | 0.9 | 7.0 | 0.00 | 0.00 | 0.00 | 87 | 1022.5 |
| 20260506191134 | 52 | 246 | 1.7 | 7.0 | 0.00 | 0.00 | 0.00 | 87 | 1022.5 |
| 20260506190621 | 52 | 294 | 0.0 | 7.0 | 0.00 | 0.00 | 0.00 | 87 | 1022.4 |
| 20260506190108 | 52 | 231 | 0.9 | 5.2 | 0.00 | 0.00 | 0.00 | 87 | 1022.4 |
| 20260506185555 | 52 | 253 | 1.7 | 5.2 | 0.00 | 0.00 | 0.00 | 87 | 1022.4 |
| 20260506185042 | 52 | 240 | 0.9 | 6.1 | 0.00 | 0.00 | 0.00 | 87 | 1022.4 |
| 20260506184529 | 52 | 257 | 0.0 | 6.1 | 0.00 | 0.00 | 0.00 | 87 | 1022.3 |
| 20260506184016 | 52 | 229 | 1.7 | 6.1 | 0.00 | 0.00 | 0.00 | 87 | 1022.2 |
| 20260506183503 | 52 | 264 | 0.0 | 5.2 | 0.00 | 0.00 | 0.00 | 87 | 1022.3 |
| 20260506182950 | 52 | 0 | 0.0 | 5.2 | 0.00 | 0.00 | 0.00 | 87 | 1022.3 |
| 20260506182437 | 51 | 0 | 0.0 | 5.2 | 0.00 | 0.00 | 0.00 | 87 | 1022.3 |
| 20260506181924 | 51 | 291 | 0.9 | 5.2 | 0.00 | 0.00 | 0.00 | 87 | 1022.3 |
| 20260506180346 | 51 | 0 | 2.6 | 5.2 | 0.00 | 0.00 | 0.00 | 87 | 1022.2 |
| 20260506175832 | 51 | 0 | 0.0 | 5.2 | 0.00 | 0.00 | 0.00 | 87 | 1022.2 |
| 20260506175319 | 52 | 0 | 0.0 | 4.3 | 0.00 | 0.00 | 0.00 | 87 | 1022.1 |
| 20260506174806 | 52 | 0 | 0.0 | 0.0 | 0.00 | 0.00 | 0.00 | 87 | 1022.1 |
| 20260506174253 | 52 | 309 | 0.0 | 5.2 | 0.00 | 0.00 | 0.00 | 87 | 1022.1 |
| 20260506173740 | 52 | 0 | 0.0 | 5.2 | 0.00 | 0.00 | 0.00 | 87 | 1022.0 |
| 20260506173227 | 52 | 298 | 0.9 | 5.2 | 0.00 | 0.00 | 0.00 | 87 | 1022.0 |
| 20260506172714 | 52 | 312 | 0.0 | 4.3 | 0.00 | 0.00 | 0.00 | 87 | 1021.9 |
| 20260506172201 | 52 | 295 | 0.0 | 2.6 | 0.00 | 0.00 | 0.00 | 87 | 1021.9 |
| 20260506171136 | 52 | 0 | 0.0 | 0.0 | 0.00 | 0.00 | 0.00 | 87 | 1021.9 |
| 20260506170622 | 51 | 0 | 0.0 | 5.2 | 0.00 | 0.00 | 0.00 | 87 | 1021.9 |
| 20260506170109 | 51 | 259 | 0.0 | 5.2 | 0.00 | 0.00 | 0.00 | 87 | 1021.9 |
| 20260506165043 | 52 | 0 | 0.0 | 0.0 | 0.00 | 0.00 | 0.00 | 87 | 1022.0 |
| 20260506164530 | 51 | 0 | 0.0 | 0.0 | 0.00 | 0.00 | 0.00 | 87 | 1021.9 |
| 20260506164021 | 52 | 0 | 0.0 | 5.2 | 0.00 | 0.00 | 0.00 | 87 | 1021.8 |
| 20260506163504 | 51 | 0 | 0.0 | 5.2 | 0.00 | 0.00 | 0.00 | 87 | 1021.8 |
| 20260506162951 | 51 | 270 | 3.5 | 5.2 | 0.00 | 0.00 | 0.00 | 87 | 1021.6 |
| 20260506162439 | 51 | 277 | 2.6 | 5.2 | 0.00 | 0.00 | 0.00 | 87 | 1021.7 |
| 20260506161925 | 51 | 0 | 0.0 | 5.2 | 0.00 | 0.00 | 0.00 | 87 | 1021.5 |
| 20260506161412 | 52 | 0 | 0.0 | 5.2 | 0.00 | 0.00 | 0.00 | 87 | 1021.3 |
| 20260506160859 | 51 | 0 | 0.0 | 2.6 | 0.00 | 0.00 | 0.00 | 87 | 1021.3 |
| 20260506160346 | 52 | 0 | 0.0 | 2.6 | 0.00 | 0.00 | 0.00 | 87 | 1021.2 |
| 20260506155833 | 52 | 0 | 0.0 | 0.0 | 0.00 | 0.00 | 0.00 | 87 | 1021.1 |
| 20260506155320 | 52 | 0 | 0.0 | 0.0 | 0.00 | 0.00 | 0.00 | 87 | 1021.0 |
| 20260506154807 | 51 | 0 | 0.0 | 4.3 | 0.00 | 0.00 | 0.00 | 87 | 1021.0 |
| 20260506154254 | 51 | 0 | 0.0 | 4.3 | 0.00 | 0.00 | 0.00 | 87 | 1021.0 |
| 20260506153741 | 51 | 310 | 0.0 | 4.3 | 0.00 | 0.00 | 0.00 | 87 | 1021.2 |
| 20260506153228 | 52 | 0 | 0.0 | 0.0 | 0.00 | 0.00 | 0.00 | 87 | 1021.0 |
| 20260506152715 | 51 | 0 | 0.0 | 0.0 | 0.00 | 0.00 | 0.00 | 87 | 1020.7 |
| 20260506152202 | 51 | 0 | 0.0 | 0.0 | 0.00 | 0.00 | 0.00 | 87 | 1020.8 |
| 20260506151651 | 52 | 0 | 0.0 | 0.0 | 0.00 | 0.00 | 0.00 | 87 | 1020.9 |
| 20260506151136 | 51 | 0 | 0.0 | 0.0 | 0.00 | 0.00 | 0.00 | 88 | 1021.0 |
| 20260506150624 | 51 | 0 | 0.0 | 0.0 | 0.00 | 0.00 | 0.00 | 88 | 1021.0 |
| 20260506150110 | 51 | 0 | 0.0 | 0.0 | 0.00 | 0.00 | 0.00 | 88 | 1021.1 |
| 20260506145558 | 51 | 0 | 0.0 | 0.0 | 0.00 | 0.00 | 0.00 | 87 | 1021.3 |
| 20260506145044 | 51 | 0 | 0.0 | 0.0 | 0.00 | 0.00 | 0.00 | 87 | 1021.3 |
| 20260506144531 | 51 | 0 | 0.0 | 0.0 | 0.00 | 0.00 | 0.00 | 88 | 1021.0 |
| 20260506144019 | 51 | 0 | 0.0 | 0.0 | 0.00 | 0.00 | 0.00 | 88 | 1021.2 |
| 20260506143505 | 51 | 0 | 0.0 | 0.0 | 0.00 | 0.00 | 0.00 | 88 | 1021.2 |
| 20260506142952 | 51 | 0 | 0.0 | 0.0 | 0.00 | 0.00 | 0.00 | 88 | 1021.2 |
| 20260506142439 | 51 | 0 | 0.0 | 0.0 | 0.00 | 0.00 | 0.00 | 88 | 1021.1 |
| 20260506141926 | 51 | 0 | 0.0 | 0.0 | 0.00 | 0.00 | 0.00 | 88 | 1020.9 |
| 20260506141413 | 51 | 0 | 0.0 | 0.0 | 0.00 | 0.00 | 0.00 | 88 | 1020.8 |
| 20260506140900 | 51 | 0 | 0.0 | 0.0 | 0.00 | 0.00 | 0.00 | 88 | 1020.6 |
| 20260506140347 | 51 | 0 | 0.0 | 0.0 | 0.00 | 0.00 | 0.00 | 87 | 1020.7 |
| 20260506135834 | 51 | 0 | 0.0 | 0.0 | 0.00 | 0.00 | 0.00 | 87 | 1020.6 |
| 20260506135321 | 51 | 0 | 0.0 | 0.0 | 0.00 | 0.00 | 0.00 | 87 | 1020.5 |
| 20260506134809 | 51 | 0 | 0.0 | 0.0 | 0.00 | 0.00 | 0.00 | 87 | 1020.4 |
| 20260506134256 | 51 | 0 | 0.0 | 0.0 | 0.00 | 0.00 | 0.00 | 87 | 1020.5 |
| 20260506133742 | 51 | 0 | 0.0 | 0.0 | 0.00 | 0.00 | 0.00 | 87 | 1020.5 |
| 20260506133229 | 51 | 0 | 0.0 | 0.0 | 0.00 | 0.00 | 0.00 | 87 | 1020.5 |
| 20260506132203 | 51 | 0 | 0.0 | 0.0 | 0.00 | 0.00 | 0.00 | 87 | 1020.3 |
| 20260506131650 | 51 | 0 | 0.0 | 0.0 | 0.00 | 0.00 | 0.00 | 87 | 1020.2 |
| 20260506131138 | 51 | 0 | 0.0 | 0.0 | 0.00 | 0.00 | 0.00 | 87 | 1020.1 |
| 20260506130624 | 51 | 0 | 0.0 | 0.0 | 0.00 | 0.00 | 0.00 | 87 | 1020.2 |
| 20260506130112 | 51 | 0 | 0.0 | 0.0 | 0.00 | 0.00 | 0.00 | 87 | 1020.1 |
| 20260506125558 | 51 | 0 | 0.0 | 0.0 | 0.00 | 0.00 | 0.00 | 87 | 1020.1 |
| 20260506125045 | 51 | 0 | 0.0 | 0.0 | 0.00 | 0.00 | 0.00 | 87 | 1020.0 |
| 20260506124532 | 51 | 0 | 0.0 | 0.0 | 0.00 | 0.00 | 0.00 | 87 | 1019.9 |
| 20260506124019 | 51 | 0 | 0.0 | 0.0 | 0.00 | 0.00 | 0.00 | 87 | 1020.0 |
| 20260506123506 | 51 | 0 | 0.0 | 0.0 | 0.00 | 0.00 | 0.00 | 87 | 1019.9 |
| 20260506122953 | 51 | 0 | 0.0 | 0.0 | 0.00 | 0.00 | 0.00 | 87 | 1019.9 |
| 20260506122440 | 51 | 0 | 0.0 | 0.0 | 0.00 | 0.00 | 0.00 | 87 | 1019.9 |
| 20260506121927 | 51 | 0 | 0.0 | 0.0 | 0.00 | 0.00 | 0.00 | 87 | 1019.8 |
| 20260506121414 | 51 | 0 | 0.0 | 0.0 | 0.00 | 0.00 | 0.00 | 87 | 1019.8 |
| 20260506120901 | 51 | 0 | 0.0 | 0.0 | 0.00 | 0.00 | 0.00 | 87 | 1020.0 |
| 20260506120349 | 51 | 0 | 0.0 | 0.0 | 0.00 | 0.00 | 0.00 | 87 | 1020.1 |
| 20260506115323 | 51 | 0 | 0.0 | 0.0 | 0.00 | 0.00 | 0.00 | 87 | 1019.9 |
| 20260506114809 | 51 | 0 | 0.0 | 0.0 | 0.00 | 0.00 | 0.00 | 87 | 1019.8 |
| 20260506114256 | 51 | 0 | 0.0 | 0.0 | 0.00 | 0.00 | 0.00 | 87 | 1019.8 |
| 20260506113743 | 51 | 0 | 0.0 | 0.0 | 0.00 | 0.00 | 0.00 | 87 | 1019.8 |
| 20260506113230 | 51 | 0 | 0.0 | 0.0 | 0.00 | 0.00 | 0.00 | 87 | 1019.8 |
| 20260506112717 | 51 | 0 | 0.0 | 0.0 | 0.00 | 0.00 | 0.00 | 87 | 1019.7 |
| 20260506112204 | 51 | 0 | 0.0 | 0.0 | 0.00 | 0.00 | 0.00 | 87 | 1019.7 |
| 20260506111651 | 51 | 0 | 0.0 | 5.2 | 0.00 | 0.00 | 0.00 | 87 | 1019.6 |
| 20260506111138 | 51 | 0 | 0.0 | 5.2 | 0.00 | 0.00 | 0.00 | 87 | 1019.6 |
| 20260506110625 | 51 | 284 | 0.0 | 5.2 | 0.00 | 0.00 | 0.00 | 87 | 1019.6 |
| 20260506110112 | 51 | 0 | 0.0 | 0.0 | 0.00 | 0.00 | 0.00 | 87 | 1019.6 |
| 20260506105559 | 51 | 0 | 0.0 | 0.0 | 0.00 | 0.00 | 0.00 | 87 | 1019.6 |
| 20260506105046 | 51 | 0 | 0.0 | 5.2 | 0.00 | 0.00 | 0.00 | 87 | 1019.5 |
| 20260506104533 | 51 | 0 | 0.0 | 5.2 | 0.00 | 0.00 | 0.00 | 87 | 1019.4 |
| 20260506103507 | 51 | 0 | 0.0 | 0.0 | 0.00 | 0.00 | 0.00 | 87 | 1019.2 |
| 20260506102954 | 51 | 0 | 0.0 | 0.0 | 0.00 | 0.00 | 0.00 | 87 | 1019.1 |
| 20260506102441 | 51 | 0 | 0.0 | 0.0 | 0.00 | 0.00 | 0.00 | 87 | 1018.9 |
| 20260506101928 | 51 | 0 | 0.0 | 0.0 | 0.00 | 0.00 | 0.00 | 88 | 1019.0 |
| 20260506101415 | 51 | 0 | 0.0 | 0.0 | 0.00 | 0.00 | 0.00 | 88 | 1019.0 |
| 20260506100902 | 51 | 0 | 0.0 | 0.0 | 0.00 | 0.00 | 0.00 | 88 | 1018.9 |
| 20260506100349 | 51 | 0 | 0.0 | 0.0 | 0.00 | 0.00 | 0.00 | 88 | 1018.9 |
| 20260506095836 | 51 | 0 | 0.0 | 0.0 | 0.00 | 0.00 | 0.00 | 88 | 1018.9 |
| 20260506095323 | 51 | 0 | 0.0 | 0.0 | 0.00 | 0.00 | 0.00 | 88 | 1018.9 |
| 20260506094810 | 52 | 0 | 0.0 | 0.0 | 0.00 | 0.00 | 0.00 | 88 | 1018.8 |
| 20260506093744 | 51 | 0 | 0.0 | 0.0 | 0.00 | 0.00 | 0.00 | 88 | 1018.8 |
| 20260506092718 | 51 | 0 | 0.0 | 0.0 | 0.00 | 0.00 | 0.00 | 88 | 1018.7 |
| 20260506092205 | 52 | 0 | 0.0 | 0.0 | 0.00 | 0.00 | 0.00 | 88 | 1018.6 |
| 20260506091652 | 52 | 0 | 0.0 | 0.0 | 0.00 | 0.00 | 0.00 | 88 | 1018.6 |
| 20260506091139 | 52 | 0 | 0.0 | 0.0 | 0.00 | 0.00 | 0.00 | 88 | 1018.6 |
| 20260506090626 | 52 | 0 | 0.0 | 0.0 | 0.00 | 0.00 | 0.00 | 88 | 1018.5 |
| 20260506090113 | 52 | 0 | 0.0 | 0.0 | 0.00 | 0.00 | 0.00 | 88 | 1018.5 |
| 20260506085559 | 52 | 0 | 0.0 | 0.0 | 0.00 | 0.00 | 0.00 | 88 | 1018.6 |
| 20260506085046 | 52 | 0 | 0.0 | 0.0 | 0.00 | 0.00 | 0.00 | 88 | 1018.5 |
| 20260506084533 | 52 | 0 | 0.0 | 0.0 | 0.00 | 0.00 | 0.00 | 88 | 1018.5 |
| 20260506084022 | 52 | 0 | 0.0 | 0.0 | 0.00 | 0.00 | 0.00 | 88 | 1018.4 |
| 20260506083507 | 52 | 0 | 0.0 | 0.0 | 0.00 | 0.00 | 0.00 | 88 | 1018.4 |
| 20260506082954 | 52 | 0 | 0.0 | 0.0 | 0.00 | 0.00 | 0.00 | 88 | 1018.3 |
| 20260506082441 | 52 | 0 | 0.0 | 0.0 | 0.00 | 0.00 | 0.00 | 88 | 1018.3 |
| 20260506081928 | 52 | 0 | 0.0 | 0.0 | 0.00 | 0.00 | 0.00 | 88 | 1018.2 |
| 20260506081415 | 52 | 0 | 0.0 | 4.3 | 0.00 | 0.00 | 0.00 | 88 | 1018.1 |
| 20260506080903 | 52 | 0 | 0.0 | 4.3 | 0.00 | 0.00 | 0.00 | 88 | 1018.0 |
| 20260506080349 | 52 | 0 | 0.9 | 4.3 | 0.00 | 0.00 | 0.00 | 88 | 1018.1 |
| 20260506072718 | 52 | 0 | 0.0 | 0.0 | 0.00 | 0.00 | 0.00 | 88 | 1017.7 |
| 20260506072205 | 52 | 0 | 0.0 | 0.0 | 0.00 | 0.00 | 0.00 | 88 | 1017.7 |
| 20260506071652 | 52 | 0 | 0.0 | 0.0 | 0.00 | 0.00 | 0.00 | 88 | 1017.6 |
| 20260506071140 | 53 | 0 | 0.0 | 0.0 | 0.00 | 0.00 | 0.00 | 88 | 1017.6 |
| 20260506070626 | 52 | 0 | 0.0 | 0.0 | 0.00 | 0.00 | 0.00 | 88 | 1017.6 |
| 20260506070200 | 53 | 0 | 0.0 | 0.0 | 0.00 | 0.00 | 0.00 | 87 | 1017.5 |
| 20260506070113 | 53 | 0 | 0.0 | 0.0 | 0.00 | 0.00 | 0.00 | 87 | 1017.5 |
| 20260506062442 | 53 | 0 | 0.0 | 0.0 | 0.00 | 0.00 | 0.00 | 87 | 1017.6 |
| 20260506061929 | 53 | 0 | 0.0 | 0.0 | 0.00 | 0.00 | 0.00 | 87 | 1017.5 |
| 20260506060350 | 53 | 0 | 0.0 | 0.0 | 0.00 | 0.00 | 0.00 | 87 | 1017.5 |
| 20260506051141 | 52 | 0 | 0.0 | 0.0 | 0.00 | 0.00 | 0.00 | 87 | 1017.4 |
| 20260506050627 | 52 | 0 | 0.0 | 0.0 | 0.00 | 0.00 | 0.00 | 87 | 1017.4 |
| 20260506050114 | 52 | 0 | 0.0 | 0.0 | 0.00 | 0.00 | 0.00 | 87 | 1017.3 |
| 20260506045048 | 52 | 0 | 0.0 | 0.0 | 0.00 | 0.00 | 0.00 | 87 | 1017.2 |
| 20260506044022 | 52 | 0 | 0.0 | 0.0 | 0.00 | 0.00 | 0.00 | 87 | 1017.2 |
| 20260506043509 | 52 | 0 | 0.0 | 0.0 | 0.00 | 0.00 | 0.00 | 87 | 1017.2 |
| 20260506042956 | 52 | 0 | 0.0 | 0.0 | 0.00 | 0.00 | 0.00 | 87 | 1017.2 |
| 20260506042443 | 52 | 0 | 0.0 | 0.0 | 0.00 | 0.00 | 0.00 | 87 | 1017.0 |
| 20260506041930 | 52 | 0 | 0.0 | 0.0 | 0.00 | 0.00 | 0.00 | 87 | 1016.9 |
| 20260506041417 | 52 | 0 | 0.0 | 0.0 | 0.00 | 0.00 | 0.00 | 87 | 1016.8 |
| 20260506040351 | 52 | 0 | 0.0 | 0.0 | 0.00 | 0.00 | 0.00 | 87 | 1016.7 |
| 20260506035838 | 53 | 0 | 0.0 | 0.0 | 0.00 | 0.00 | 0.00 | 87 | 1016.8 |
| 20260506035325 | 52 | 0 | 0.0 | 0.0 | 0.00 | 0.00 | 0.00 | 87 | 1016.7 |
| 20260506034812 | 52 | 0 | 0.0 | 0.0 | 0.00 | 0.00 | 0.00 | 87 | 1016.6 |
| 20260506034259 | 52 | 0 | 0.0 | 0.0 | 0.00 | 0.00 | 0.00 | 87 | 1016.5 |
| 20260506033746 | 52 | 0 | 0.0 | 0.0 | 0.00 | 0.00 | 0.00 | 87 | 1016.6 |
| 20260506033233 | 52 | 0 | 0.0 | 0.0 | 0.00 | 0.00 | 0.00 | 87 | 1016.5 |
| 20260506032720 | 52 | 0 | 0.0 | 0.0 | 0.00 | 0.00 | 0.00 | 87 | 1016.6 |
| 20260506032207 | 52 | 0 | 0.0 | 0.0 | 0.00 | 0.00 | 0.00 | 87 | 1016.5 |
| 20260506031655 | 52 | 0 | 0.0 | 0.0 | 0.00 | 0.00 | 0.00 | 87 | 1016.5 |
| 20260506030629 | 52 | 0 | 0.0 | 4.3 | 0.00 | 0.00 | 0.00 | 87 | 1016.4 |
| 20260506025602 | 53 | 65 | 0.0 | 3.5 | 0.00 | 0.00 | 0.00 | 87 | 1016.4 |
| 20260506025049 | 53 | 322 | 0.0 | 2.6 | 0.00 | 0.00 | 0.00 | 87 | 1016.4 |
| 20260506024538 | 53 | 0 | 0.0 | 0.0 | 0.00 | 0.00 | 0.00 | 87 | 1016.4 |
| 20260506024023 | 53 | 0 | 0.0 | 0.0 | 0.00 | 0.00 | 0.00 | 87 | 1016.3 |
| 20260506023510 | 53 | 0 | 0.0 | 4.3 | 0.00 | 0.00 | 0.00 | 87 | 1016.2 |
| 20260506022957 | 52 | 0 | 0.0 | 4.3 | 0.00 | 0.00 | 0.00 | 87 | 1016.2 |
| 20260506022444 | 53 | 305 | 0.0 | 4.3 | 0.00 | 0.00 | 0.00 | 87 | 1016.2 |
| 20260506021931 | 53 | 0 | 0.0 | 3.5 | 0.00 | 0.00 | 0.00 | 87 | 1016.1 |
| 20260506021418 | 53 | 9 | 0.0 | 3.5 | 0.00 | 0.00 | 0.00 | 87 | 1016.1 |
| 20260506020905 | 53 | 0 | 0.0 | 0.0 | 0.00 | 0.00 | 0.00 | 87 | 1016.2 |
| 20260506020352 | 53 | 0 | 0.0 | 5.2 | 0.00 | 0.00 | 0.00 | 87 | 1016.2 |
| 20260506015839 | 53 | 0 | 0.0 | 5.2 | 0.00 | 0.00 | 0.00 | 87 | 1016.2 |
| 20260506015326 | 53 | 0 | 2.6 | 5.2 | 0.00 | 0.00 | 0.00 | 87 | 1016.2 |
| 20260506014813 | 53 | 320 | 0.0 | 4.3 | 0.00 | 0.00 | 0.00 | 87 | 1016.2 |
| 20260506014300 | 53 | 0 | 0.0 | 4.3 | 0.00 | 0.00 | 0.00 | 87 | 1016.2 |
| 20260506013747 | 53 | 336 | 0.0 | 4.3 | 0.00 | 0.00 | 0.00 | 87 | 1016.2 |
| 20260506013234 | 53 | 0 | 0.0 | 5.2 | 0.00 | 0.00 | 0.00 | 87 | 1016.1 |
| 20260506012721 | 53 | 301 | 0.0 | 5.2 | 0.00 | 0.00 | 0.00 | 87 | 1016.1 |
| 20260506012208 | 53 | 9 | 0.0 | 5.2 | 0.00 | 0.00 | 0.00 | 88 | 1016.2 |
| 20260506011655 | 53 | 322 | 0.9 | 4.3 | 0.00 | 0.00 | 0.00 | 87 | 1016.2 |
| 20260506011142 | 53 | 298 | 3.5 | 6.1 | 0.00 | 0.00 | 0.00 | 87 | 1016.1 |
| 20260506010629 | 53 | 299 | 2.6 | 6.1 | 0.00 | 0.00 | 0.00 | 88 | 1016.2 |